Location: Newark
(34.0111°N, 88.4892°W)
Time: 21:17:33
(UTC+00:00)

LightSail 2 - Pass Details

Date: 07 March 2020
Orbit: 693 x 726 km, 24.0° (Epoch: 02 April)

Event Time Altitude Azimuth Distance (km) Brightness Sun altitude
Rises 00:20:55 0° 219° (SW) 3,056 9.1 -6.2°
Reaches altitude 10° 00:24:24 10° 195° (SSW) 2,135 7.8 -6.9°
Maximum altitude 00:27:03 14° 163° (SSE) 1,854 7.2 -7.5°
Drops below altitude 10° 00:29:43 10° 131° (SE) 2,132 7.2 -8.0°
Enters shadow 00:31:04 - 119° (ESE) 2,444 7.4 -8.3°
